Regional Weather Roundup
Issued by NWS

Home | Current Version | Previous Version | Graphics & Text | Print | Product List | Glossary On
Versions: 1 2 3 4 5 6 7 8 9 10 11 12 13 14 15 16 17 18 19 20 21 22 23 24 25 26 27 28 29 30 31 32 33 34 35 36
000
ASUS43 KDMX 221707
RWRIA

WEATHER ROUNDUP FOR IOWA
NATIONAL WEATHER SERVICE DES MOINES IA
1200 PM CDT WED OCT 22 2014

NOTE: "FAIR" INDICATES FEW OR NO CLOUDS BELOW 12,000 FEET WITH NO
SIGNIFICANT WEATHER AND/OR OBSTRUCTIONS TO VISIBILITY.

* - THESE STATIONS ARE NOT NWS STATIONS...THUS NOT UNDER NWS
QUALITY CONTROL.  THEY ALSO DO NOT REPORT WEATHER SUCH
AS PRECIPITATION OR FOG.

IAZ001>003-012>014-020>022-031>034-043>046-221800-
   NORTHWEST IOWA

CITY           SKY/WX    TMP DP  RH WIND       PRES   REMARKS
CARROLL *      SUNNY     61  45  55 SE18G24   30.12F
CHEROKEE *     SUNNY     64  46  52 S18       30.07F
DENISON *      SUNNY     64  46  52 S12G20    30.08S
LE MARS *      SUNNY     66  50  55 S21       30.03F
ORANGE CITY *  SUNNY     66  46  48 S16       30.04S
SHELDON *      SUNNY     64  46  52 S22G32    30.03F
SIOUX CITY     MOSUNNY   67  49  52 S17       30.04F
SPENCER        SUNNY     61  44  53 SE22      30.08F
STORM LAKE *   SUNNY     63  45  51 S20       30.10S
$$

IAZ055>058-069>071-079>083-090>094-221800-
   SOUTHWEST IOWA

CITY           SKY/WX    TMP DP  RH WIND       PRES   REMARKS
ATLANTIC *     SUNNY     64  46  52 S17G25    30.12F
AUDUBON *      SUNNY     64  45  48 S15G23    30.13F
CLARINDA *     SUNNY     64  48  55 SE12G18   30.16F
COUNCIL BLFS * SUNNY     66  50  55 S18       30.09S
CRESTON *      PTSUNNY   57  45  62 SE17G24   30.18F
HARLAN  *      SUNNY     66  48  52 S20G26    30.13F
LAMONI         PTSUNNY   58  45  62 S12G17    30.21F
RED OAK *      SUNNY     64  48  55 S17G23    30.12F
SHENANDOAH *   SUNNY     66  50  55 SE14      30.13F
$$

IAZ047>049-059>061-072>074-084-221800-
   CENTRAL IOWA

CITY           SKY/WX    TMP DP  RH WIND       PRES   REMARKS
AMES           CLOUDY    53  42  66 SE10      30.22S
ANKENY *       PTSUNNY   57  45  62 SE13      30.22S
CHARITON *     PTSUNNY   59  45  58 SE14G21   30.23S
DES MOINES     CLOUDY    57  43  59 S16       30.22S
GRINNELL*      SUNNY     54  43  66 SE13      30.26F
KNOXVILLE *    PTSUNNY   55  43  62 S15       30.22F
MARSHALLTOWN   PTSUNNY   54  42  64 S14       30.24F
PELLA *        MOSUNNY   57  45  62 SE13      30.26F
PERRY *        PTSUNNY   55  43  62 SE18      30.18F
$$

IAZ004>006-015-016-023>025-035-036-221800-
   NORTH CENTRAL IOWA

CITY           SKY/WX    TMP DP  RH WIND       PRES   REMARKS
ALGONA *       SUNNY     57  43  58 S18G29    30.14F
CLARION *      PTSUNNY   57  43  58 S21G28    30.18F
ESTHERVILLE    SUNNY     58  43  57 S21G30    30.09F
FORT DODGE *   PTSUNNY   55  43  62 S14       30.17F
MASON CITY     CLOUDY    52  42  69 SE21G26   30.21F
FOREST CITY *  CLOUDY    55  43  62 SE22      30.18F
IOWA FALLS *   CLOUDY    54  43  66 SE13G22   30.23S
$$

IAZ007>011-017>019-026>030-037>042-050>054-066-221800-
   NORTHEAST IOWA

CITY           SKY/WX    TMP DP  RH WIND       PRES   REMARKS
CEDAR RAPIDS   SUNNY     53  42  66 SE14      30.29F
CHARLES CITY * PTSUNNY   54  41  62 SE15      30.25F
CLINTON *      SUNNY     52  39  62 SE14      30.35F
DECORAH *      SUNNY     52  39  62 S9G20     30.27F
DUBUQUE        SUNNY     51  40  65 S14       30.32F
MONTICELLO *   SUNNY     52  41  66 SE12G18   30.31S
OELWEIN *      SUNNY     54  41  62 SE18      30.29S
WATERLOO       SUNNY     53  41  63 SE17      30.26F
$$

IAZ064-065-067-068-078-221800-
   EAST CENTRAL IOWA

CITY           SKY/WX    TMP DP  RH WIND       PRES   REMARKS
DAVENPORT      SUNNY     52  39  61 SE12      30.33F
IOWA CITY      SUNNY     54  42  64 SE12      30.32F
MT. PLEASANT * SUNNY     55  41  58 SE9       30.31F
MUSCATINE *    SUNNY     54  41  62 S12       30.32F
QUAD CITIES    SUNNY     55  41  59 S9        30.32F
$$

IAZ062-063-075>077-085>089-095>099-221800-
   SOUTHEAST IOWA

CITY           SKY/WX    TMP DP  RH WIND       PRES   REMARKS
BURLINGTON     SUNNY     54  42  64 S8        30.31F
FAIRFIELD *    SUNNY     55  41  58 S8        30.30S
FORT MADISON * SUNNY     57  45  62 SE8       30.31F
KEOKUK *       SUNNY     55  43  62 SE10      30.30F
OSKALOOSA *      N/A     55  43  62 S10       30.27F
CENTERVILLE *  SUNNY     57  45  62 E10       30.26F
WASHINGTON *   SUNNY     55  43  62 S12G17    30.30S
$$

ABBREVIATIONS USED IN REMARKS
   TC - TEMPERATURES IN CELSIUS
  WCI - WIND CHILL INDEX
   HX - HEAT INDEX
  VSB - VISIBILITY
$$




USA.gov is the U.S. government's official web portal to all federal, state and local government web resources and services.